NUTSAT (55124 NORAD) Tracking and Keplerian Element Data

This shows tracking and keplerian element data for the satellite.

Feedback or suggestion? Click here.




ElementValue
Catalog55124
NameNUTSAT
Epoch Orbit1360
Epoch Day84.9812154
Epoch Year2023
RAAN11.3358
Inclination51.6247
Eccentricity0.0010345
Argument of Perigee176.6575
Mean Anonmoly183.4505
Mean Motion15.98537174
Decay Rate0.01392909
L11 55124U 98067UR 23084.98121540 .01392909 10384-2 29039-2 0 9990
L22 55124 51.6247 11.3358 0010345 176.6575 183.4505 15.98537174 13601



Live tracking and technical data element details for NUTSAT (NORAD 55124). NUTSAT can be tracked NOW for your location showing map with azimuth and elevation plus other details from your city location.







IsCatalogInMostPopularTable: catalog: 55124, numindb: 9
Update: records affected: 1



GetName: 55124 NUTSAT

Hit Count: updated at: Mon, 27 Mar 2023 08:22:46 GMT